TimeMST,TemperatureF,Dew PointF,Humidity,Sea Level PressureIn,VisibilityMPH,Wind Direction,Wind SpeedMPH,Gust SpeedMPH,PrecipitationIn,Events,Conditions,WindDirDegrees,DateUTC
12:53 AM,32.0,28.0,85,30.32,10.0,West,10.4,-,N/A,,Overcast,260,2013-11-26 07:53:00
1:53 AM,32.0,28.0,85,30.32,10.0,WNW,9.2,-,N/A,,Overcast,300,2013-11-26 08:53:00
2:53 AM,30.9,27.0,85,30.32,10.0,West,11.5,-,N/A,,Mostly Cloudy,280,2013-11-26 09:53:00
3:53 AM,30.0,27.0,88,30.33,10.0,WNW,10.4,-,N/A,,Overcast,290,2013-11-26 10:53:00
4:53 AM,30.0,26.1,85,30.35,10.0,SW,5.8,-,N/A,,Partly Cloudy,230,2013-11-26 11:53:00
5:53 AM,30.0,26.1,85,30.37,10.0,West,6.9,-,N/A,,Overcast,280,2013-11-26 12:53:00
6:53 AM,30.9,27.0,85,30.40,10.0,West,5.8,-,N/A,,Overcast,260,2013-11-26 13:53:00
7:53 AM,30.9,27.0,85,30.42,10.0,West,11.5,-,N/A,,Partly Cloudy,270,2013-11-26 14:53:00
8:53 AM,36.0,28.9,76,30.42,10.0,West,6.9,-,N/A,,Clear,260,2013-11-26 15:53:00
9:53 AM,39.0,30.0,70,30.42,10.0,WSW,9.2,-,N/A,,Clear,250,2013-11-26 16:53:00
10:53 AM,44.1,30.9,60,30.40,10.0,West,6.9,-,N/A,,Clear,270,2013-11-26 17:53:00
11:53 AM,50.0,27.0,41,30.34,10.0,North,17.3,-,N/A,,Clear,10,2013-11-26 18:53:00
12:53 PM,50.0,23.0,35,30.33,10.0,North,13.8,21.9,N/A,,Clear,10,2013-11-26 19:53:00
1:53 PM,50.0,24.1,36,30.32,10.0,North,17.3,23.0,N/A,,Clear,360,2013-11-26 20:53:00
2:53 PM,50.0,24.1,36,30.31,10.0,NNE,12.7,-,N/A,,Clear,20,2013-11-26 21:53:00
3:53 PM,48.0,27.0,44,30.33,10.0,NNE,5.8,-,N/A,,Clear,30,2013-11-26 22:53:00
4:53 PM,44.1,25.0,47,30.34,10.0,Calm,Calm,-,N/A,,Clear,0,2013-11-26 23:53:00
5:53 PM,44.1,23.0,43,30.34,10.0,Calm,Calm,-,N/A,,Clear,0,2013-11-27 00:53:00
6:53 PM,36.0,28.0,73,30.38,10.0,West,8.1,-,N/A,,Clear,260,2013-11-27 01:53:00
7:53 PM,39.0,28.0,65,30.37,10.0,West,4.6,-,N/A,,Clear,260,2013-11-27 02:53:00
8:53 PM,36.0,25.0,64,30.36,10.0,Calm,Calm,-,N/A,,Clear,0,2013-11-27 03:53:00
9:53 PM,34.0,25.0,70,30.35,10.0,Calm,Calm,-,N/A,,Clear,0,2013-11-27 04:53:00
10:53 PM,30.9,24.1,76,30.34,10.0,Calm,Calm,-,N/A,,Clear,0,2013-11-27 05:53:00
11:53 PM,28.0,24.1,85,30.32,10.0,North,3.5,-,N/A,,Clear,350,2013-11-27 06:53:00